TimeCDT,TemperatureF,Dew PointF,Humidity,Sea Level PressureIn,VisibilityMPH,Wind Direction,Wind SpeedMPH,Gust SpeedMPH,PrecipitationIn,Events,Conditions,WindDirDegrees,DateUTC
12:15 AM,46.4,33.8,62,29.81,10.0,WNW,5.8,-,N/A,,Clear,300,2014-03-28 05:15:00
12:35 AM,46.4,33.8,62,29.83,10.0,WNW,4.6,-,N/A,,Clear,290,2014-03-28 05:35:00
12:55 AM,44.6,33.8,66,29.85,10.0,WNW,6.9,-,N/A,,Clear,300,2014-03-28 05:55:00
1:15 AM,42.8,33.8,70,29.86,10.0,NW,4.6,-,N/A,,Clear,310,2014-03-28 06:15:00
1:35 AM,42.8,32.0,66,29.87,10.0,NW,4.6,-,N/A,,Clear,310,2014-03-28 06:35:00
1:55 AM,42.8,30.2,61,29.87,10.0,NW,6.9,-,N/A,,Clear,310,2014-03-28 06:55:00
2:15 AM,41.0,30.2,65,29.88,10.0,NNW,4.6,-,N/A,,Clear,340,2014-03-28 07:15:00
2:35 AM,39.2,30.2,70,29.88,10.0,WNW,4.6,-,N/A,,Clear,290,2014-03-28 07:35:00
2:55 AM,39.2,30.2,70,29.89,10.0,WNW,5.8,-,N/A,,Clear,290,2014-03-28 07:55:00
3:15 AM,39.2,30.2,70,29.91,10.0,West,6.9,-,N/A,,Clear,270,2014-03-28 08:15:00
3:35 AM,39.2,30.2,70,29.89,10.0,NNW,4.6,-,N/A,,Clear,330,2014-03-28 08:35:00
3:55 AM,37.4,30.2,75,29.90,10.0,NW,4.6,-,N/A,,Clear,310,2014-03-28 08:55:00
4:15 AM,35.6,28.4,75,29.89,10.0,NW,4.6,-,N/A,,Clear,310,2014-03-28 09:15:00
4:35 AM,37.4,28.4,70,29.91,10.0,WNW,5.8,-,N/A,,Clear,290,2014-03-28 09:35:00
4:55 AM,37.4,30.2,75,29.91,10.0,NNW,5.8,-,N/A,,Clear,330,2014-03-28 09:55:00
5:15 AM,35.6,30.2,81,29.91,10.0,NNW,4.6,-,N/A,,Clear,330,2014-03-28 10:15:00
5:35 AM,35.6,28.4,75,29.92,10.0,Calm,Calm,-,N/A,,Clear,0,2014-03-28 10:35:00
5:55 AM,35.6,28.4,75,29.93,10.0,NW,4.6,-,N/A,,Partly Cloudy,310,2014-03-28 10:55:00
6:15 AM,35.6,28.4,75,29.95,10.0,Calm,Calm,-,N/A,,Mostly Cloudy,0,2014-03-28 11:15:00
6:35 AM,35.6,28.4,75,29.96,10.0,Calm,Calm,-,N/A,,Overcast,0,2014-03-28 11:35:00
6:55 AM,35.6,28.4,75,29.96,10.0,NNW,6.9,-,N/A,,Overcast,330,2014-03-28 11:55:00
7:15 AM,35.6,28.4,75,29.96,10.0,NNW,3.5,-,N/A,,Overcast,330,2014-03-28 12:15:00
7:35 AM,35.6,30.2,81,29.98,10.0,NW,3.5,-,N/A,,Overcast,320,2014-03-28 12:35:00
7:55 AM,37.4,30.2,75,29.99,10.0,Calm,Calm,-,N/A,,Overcast,0,2014-03-28 12:55:00
8:15 AM,37.4,30.2,75,30.00,10.0,NNW,4.6,-,N/A,,Overcast,340,2014-03-28 13:15:00
8:35 AM,37.4,30.2,75,30.01,10.0,North,3.5,-,N/A,,Overcast,360,2014-03-28 13:35:00
8:55 AM,37.4,30.2,75,30.00,10.0,NNW,5.8,-,N/A,,Overcast,340,2014-03-28 13:55:00
9:15 AM,37.4,30.2,75,30.04,10.0,Calm,Calm,-,N/A,,Overcast,0,2014-03-28 14:15:00
9:35 AM,37.4,30.2,75,30.03,10.0,North,3.5,-,N/A,,Overcast,360,2014-03-28 14:35:00
9:55 AM,37.4,30.2,75,30.06,10.0,West,3.5,-,N/A,,Overcast,270,2014-03-28 14:55:00
10:15 AM,39.2,30.2,70,30.07,10.0,Calm,Calm,-,N/A,,Overcast,0,2014-03-28 15:15:00
10:35 AM,39.2,32.0,75,30.08,10.0,WNW,4.6,-,N/A,,Overcast,290,2014-03-28 15:35:00
10:55 AM,39.2,30.2,70,30.10,10.0,West,5.8,-,N/A,,Overcast,260,2014-03-28 15:55:00
11:15 AM,39.2,32.0,75,30.10,10.0,Calm,Calm,-,N/A,,Overcast,0,2014-03-28 16:15:00
11:35 AM,39.2,32.0,75,30.09,10.0,Calm,Calm,-,N/A,,Overcast,0,2014-03-28 16:35:00
11:55 AM,42.8,33.8,70,30.08,10.0,NE,5.8,-,N/A,,Overcast,40,2014-03-28 16:55:00
12:15 PM,44.6,33.8,66,30.07,10.0,NNE,11.5,17.3,N/A,,Mostly Cloudy,30,2014-03-28 17:15:00
12:35 PM,46.4,33.8,62,30.06,10.0,NE,8.1,-,N/A,,Partly Cloudy,50,2014-03-28 17:35:00
12:55 PM,46.4,33.8,62,30.06,10.0,ENE,6.9,-,N/A,,Clear,60,2014-03-28 17:55:00
1:15 PM,46.4,33.8,62,30.07,10.0,NE,6.9,-,N/A,,Clear,40,2014-03-28 18:15:00
1:35 PM,48.2,33.8,58,30.07,10.0,NE,3.5,-,N/A,,Clear,50,2014-03-28 18:35:00
1:55 PM,48.2,33.8,58,30.06,10.0,NE,3.5,-,N/A,,Clear,50,2014-03-28 18:55:00
2:15 PM,48.2,33.8,58,30.04,10.0,ENE,8.1,-,N/A,,Clear,60,2014-03-28 19:15:00
2:35 PM,48.2,35.6,62,30.04,10.0,ENE,5.8,-,N/A,,Clear,70,2014-03-28 19:35:00
2:55 PM,50.0,33.8,54,30.03,10.0,NE,4.6,-,N/A,,Clear,40,2014-03-28 19:55:00
3:15 PM,50.0,33.8,54,30.03,10.0,NE,9.2,-,N/A,,Clear,50,2014-03-28 20:15:00
3:35 PM,50.0,35.6,58,30.02,10.0,NE,9.2,-,N/A,,Clear,50,2014-03-28 20:35:00
3:55 PM,48.2,33.8,58,30.03,10.0,NNE,6.9,-,N/A,,Partly Cloudy,30,2014-03-28 20:55:00
4:15 PM,48.2,33.8,58,30.03,10.0,NNE,6.9,-,N/A,,Scattered Clouds,30,2014-03-28 21:15:00
4:35 PM,48.2,33.8,58,30.04,10.0,NNE,8.1,-,N/A,,Scattered Clouds,20,2014-03-28 21:35:00
4:55 PM,48.2,33.8,58,30.05,10.0,North,4.6,-,N/A,,Mostly Cloudy,360,2014-03-28 21:55:00
5:15 PM,46.4,35.6,66,30.06,10.0,NE,5.8,-,N/A,,Overcast,50,2014-03-28 22:15:00
5:35 PM,46.4,33.8,62,30.07,10.0,NE,4.6,-,N/A,,Overcast,50,2014-03-28 22:35:00
5:55 PM,46.4,33.8,62,30.08,10.0,ENE,4.6,-,N/A,,Overcast,60,2014-03-28 22:55:00
6:15 PM,46.4,35.6,66,30.08,10.0,NNE,3.5,-,N/A,,Overcast,20,2014-03-28 23:15:00
6:35 PM,46.4,35.6,66,30.08,10.0,North,4.6,-,N/A,,Overcast,10,2014-03-28 23:35:00
6:55 PM,46.4,35.6,66,30.08,8.0,North,4.6,-,N/A,,Overcast,360,2014-03-28 23:55:00
7:15 PM,44.6,35.6,71,30.09,7.0,North,3.5,-,N/A,,Overcast,10,2014-03-29 00:15:00
7:35 PM,44.6,37.4,76,30.08,7.0,ENE,4.6,-,N/A,,Overcast,60,2014-03-29 00:35:00
7:55 PM,44.6,37.4,76,30.08,8.0,NE,5.8,-,N/A,,Overcast,50,2014-03-29 00:55:00
8:15 PM,44.6,37.4,76,30.07,9.0,NNE,4.6,-,N/A,,Overcast,30,2014-03-29 01:15:00
8:35 PM,44.6,35.6,71,30.10,10.0,Calm,Calm,-,N/A,,Overcast,0,2014-03-29 01:35:00
8:55 PM,44.6,35.6,71,30.10,10.0,NE,4.6,-,N/A,,Overcast,40,2014-03-29 01:55:00
9:15 PM,44.6,35.6,71,30.10,10.0,NNE,5.8,-,N/A,,Overcast,30,2014-03-29 02:15:00
9:35 PM,44.6,35.6,71,30.09,10.0,North,5.8,-,N/A,,Overcast,10,2014-03-29 02:35:00
9:55 PM,44.6,35.6,71,30.10,10.0,North,5.8,-,N/A,,Mostly Cloudy,10,2014-03-29 02:55:00
10:15 PM,42.8,35.6,76,30.10,10.0,North,6.9,-,N/A,,Mostly Cloudy,10,2014-03-29 03:15:00
10:35 PM,42.8,35.6,76,30.10,10.0,NNE,5.8,-,N/A,,Mostly Cloudy,20,2014-03-29 03:35:00
10:55 PM,42.8,35.6,76,30.12,10.0,NNE,6.9,-,N/A,,Mostly Cloudy,30,2014-03-29 03:55:00
11:15 PM,42.8,33.8,70,30.12,10.0,NNE,5.8,-,N/A,,Scattered Clouds,30,2014-03-29 04:15:00
11:35 PM,42.8,33.8,70,30.12,10.0,NNE,4.6,-,N/A,,Mostly Cloudy,30,2014-03-29 04:35:00
11:55 PM,41.0,33.8,76,30.11,10.0,NE,5.8,-,N/A,,Mostly Cloudy,40,2014-03-29 04:55:00